[[{"header":{"parameterUnit":"m.s-1","parameterCategory":1,"la1":30.2992,"la2":30.254,"lo1":-89.0895,"lo2":-89.0443,"dy":0.0025,"dx":0.0025,"nx":19,"ny":19,"refTime":"2026-04-19T03:00:00:Z","depth":0,"parameterNumber":2,"parameterNumberName":"U-component_of_WINDS"},"data":[0,0,0,-7.6699,-7.6703,-7.6854,-7.6854,-7.7091,-7.7093,0,0,0,0,0,0,0,0,0,0,0,-7.668,-7.6683,-7.6699,-7.6703,-7.6854,-7.6854,-7.709,-7.7093,0,0,0,0,0,0,0,0,0,0,0,-7.6679,-7.6682,-7.6685,-7.6704,-7.6854,-7.6854,-7.7089,-7.696,0,0,0,0,0,0,0,0,0,0,-7.6806,-7.6814,-7.6681,-7.6685,-7.6705,-7.6854,-7.6854,-7.6953,-7.6968,-7.704,0,-7.7112,0,-7.7107,-7.7112,-7.7113,0,0,0,-7.6684,-7.6802,-7.6819,-7.6686,-7.6706,-7.6854,-7.678,-7.6961,-7.6978,-7.7061,-7.7115,-7.7122,-7.711,-7.7113,-7.7115,-7.7599,-7.7602,0,0,-7.6675,-7.6721,-7.6808,-7.6831,-7.6811,-7.6776,-7.6785,-7.6971,-7.7032,-7.7115,-7.7127,-7.7114,-7.7115,-7.7117,-7.7595,-7.7599,0,0,0,-7.6664,-7.6716,-7.6728,-7.6823,-7.6847,-7.6781,-7.6792,-7.7024,-7.7024,-7.7129,-7.7117,-7.7117,-7.712,-7.7592,-7.7597,-7.7801,0,0,0,-7.6658,-7.671,-7.6725,-7.6755,-7.6845,-7.6938,-7.6842,-7.7011,-7.7031,-7.7116,-7.7117,-7.7123,-7.7588,-7.7595,-7.7787,-7.789,0,0,0,-7.6661,-7.671,-7.6741,-7.6757,-7.6824,-7.6933,-7.6943,-7.7014,-7.7025,-7.7113,-7.7124,-7.7586,-7.7593,-7.7776,-7.787,-7.8033,0,0,0,-7.6677,-7.6918,-7.6745,-7.7008,-7.6823,-7.7058,-7.6942,-7.7114,-7.7214,-7.7118,-7.7589,-7.7596,-7.7772,-7.7858,-7.8021,-7.818,-7.825,0,0,-7.7007,-7.6959,-7.7111,-7.696,-7.7238,-7.7031,-7.7339,-7.7386,-7.7351,-7.7518,-7.7529,-7.7792,-7.7869,-7.803,-7.8622,-7.8678,0,0,0,-7.7231,-7.7341,-7.7404,-7.7502,-7.7544,-7.759,-7.7585,-7.7602,-7.7742,-7.7446,-7.7891,-7.7936,-7.8029,-7.8103,-7.8151,-7.8229,-7.7632,-7.7631,-7.763,-7.7764,-7.7708,-7.7955,-7.7919,-7.8015,-7.8009,-7.8082,-7.8104,-7.8018,-7.8125,-7.8175,-7.8541,-7.8629,-7.8665,-7.8747,-7.8252,-7.8253,-7.8253,-7.8254,-7.8243,-7.8391,-7.8272,-7.847,-7.841,-7.8576,-7.8579,-7.8513,-7.8659,-7.8497,-7.8576,-7.8407,-7.8728,-7.8797,-7.8269,-7.8266,-7.8264,-7.8263,-7.8262,-7.8588,-7.8649,-7.8667,-7.8804,-7.8916,-7.8869,-7.9016,-7.8954,-7.8897,-7.8976,-7.9023,-7.902,-7.9011,-7.9002,-7.9004,-7.9005,-7.9006,-7.9007,-7.9008,-7.894,-7.8953,-7.9085,-7.9152,-7.9207,-7.9273,-7.927,-7.9323,-7.9366,-7.931,-7.931,-7.9216,-7.8769,-7.8659,-7.9027,-7.9024,-7.9021,-7.9019,-7.9018,-7.9451,-7.9326,-7.953,-7.9586,-7.966,-7.9777,-7.9696,-7.9811,-7.9845,-7.9921,-7.9809,-7.9487,-7.9434,-7.9396,-7.9305,-7.9818,-7.9818,-7.9818,-7.9818,-7.9745,-7.9711,-7.9907,-8.0002,-8.0087,-8.0035,-8.0269,-8.0269,-8.0249,-8.0268,-8.0184,-8.0058,-8.0021,-7.999,-7.9939,-7.9853,-8.0494,-8.0495,-8.0495,-8.0057,-8.003,-8.0241,-8.022,-8.0274,-8.0322,-8.054,-8.0654,-8.0605,-8.0522,-8.0282,-8.0254,-8.0048,-7.9984,-7.9897,-7.9819,-7.9661,0,0]},{"header":{"parameterUnit":"m.s-1","parameterCategory":1,"la1":30.2992,"la2":30.254,"lo1":-89.0895,"lo2":-89.0443,"dy":0.0025,"dx":0.0025,"nx":19,"ny":19,"refTime":"2026-04-19T03:00:00:Z","depth":0,"parameterNumber":3,"parameterNumberName":"V-component_of_WINDS"},"data":[0,0,0,-2.0069,-2.007,-2.0105,-2.0105,-2.0158,-2.0159,0,0,0,0,0,0,0,0,0,0,0,-2.0064,-2.0065,-2.0069,-2.007,-2.0105,-2.0105,-2.0158,-2.0159,0,0,0,0,0,0,0,0,0,0,0,-2.0064,-2.0065,-2.0066,-2.007,-2.0105,-2.0105,-2.0158,-2.0129,0,0,0,0,0,0,0,0,0,0,-2.0093,-2.0095,-2.0065,-2.0066,-2.007,-2.0105,-2.0105,-2.0127,-2.013,-2.0147,0,-2.0163,0,-2.0162,-2.0163,-2.0163,0,0,0,-2.0066,-2.0092,-2.0096,-2.0066,-2.0071,-2.0105,-2.0088,-2.0129,-2.0133,-2.0151,-2.0163,-2.0165,-2.0163,-2.0164,-2.0164,-2.0271,-2.0272,0,0,-2.0064,-2.0074,-2.0094,-2.0099,-2.0094,-2.0087,-2.0089,-2.0131,-2.0145,-2.0164,-2.0166,-2.0164,-2.0164,-2.0164,-2.027,-2.0271,0,0,0,-2.0061,-2.0073,-2.0076,-2.0097,-2.0103,-2.0088,-2.009,-2.0143,-2.0143,-2.0167,-2.0164,-2.0164,-2.0165,-2.027,-2.0271,-2.0315,0,0,0,-2.006,-2.0071,-2.0075,-2.0082,-2.0102,-2.0123,-2.0102,-2.014,-2.0145,-2.0164,-2.0164,-2.0166,-2.0269,-2.027,-2.0312,-2.0335,0,0,0,-2.006,-2.0071,-2.0078,-2.0082,-2.0097,-2.0122,-2.0125,-2.0141,-2.0143,-2.0163,-2.0166,-2.0268,-2.027,-2.031,-2.0331,-2.0366,0,0,0,-2.0064,-2.0118,-2.0079,-2.0139,-2.0097,-2.015,-2.0124,-2.0163,-2.0186,-2.0165,-2.0269,-2.0271,-2.0309,-2.0328,-2.0363,-2.0397,-2.0412,0,0,-2.0138,-2.0128,-2.0161,-2.0128,-2.019,-2.0144,-2.0212,-2.0223,-2.0216,-2.0253,-2.0255,-2.0313,-2.033,-2.0365,-2.0494,-2.0506,0,0,0,-2.0189,-2.0213,-2.0227,-2.0249,-2.0258,-2.0268,-2.0267,-2.0271,-2.0302,-2.0237,-2.0335,-2.0345,-2.0365,-2.0381,-2.0391,-2.0408,-2.0278,-2.0278,-2.0278,-2.0309,-2.0296,-2.0351,-2.0342,-2.0363,-2.0361,-2.0377,-2.0381,-2.0363,-2.0386,-2.0397,-2.0477,-2.0496,-2.0504,-2.0521,-2.0414,-2.0414,-2.0414,-2.0414,-2.0417,-2.0449,-2.0421,-2.0465,-2.045,-2.0487,-2.0486,-2.0472,-2.0503,-2.0468,-2.0485,-2.0447,-2.0517,-2.0532,-2.0418,-2.0417,-2.0417,-2.0416,-2.0416,-2.0494,-2.0507,-2.0511,-2.0539,-2.0563,-2.0551,-2.0583,-2.0568,-2.0555,-2.0572,-2.0582,-2.0581,-2.0578,-2.0578,-2.0578,-2.0578,-2.0578,-2.0579,-2.0579,-2.0574,-2.0576,-2.0604,-2.0617,-2.0628,-2.0641,-2.0638,-2.0649,-2.0657,-2.0644,-2.0644,-2.0623,-2.0527,-2.0503,-2.0583,-2.0582,-2.0582,-2.0581,-2.0581,-2.0688,-2.0659,-2.0703,-2.0714,-2.0727,-2.0751,-2.0732,-2.0755,-2.0762,-2.0777,-2.0752,-2.0683,-2.0671,-2.0663,-2.0643,-2.0754,-2.0754,-2.0754,-2.0754,-2.0753,-2.0746,-2.0786,-2.0804,-2.0821,-2.0808,-2.0856,-2.0854,-2.0848,-2.0851,-2.0833,-2.0805,-2.0797,-2.079,-2.0779,-2.076,-2.0899,-2.0899,-2.0899,-2.0823,-2.0815,-2.086,-2.0853,-2.0862,-2.087,-2.0915,-2.0937,-2.0924,-2.0905,-2.0853,-2.0847,-2.0802,-2.0788,-2.0769,-2.0752,-2.0717,0,0]}]]